TimeEST,TemperatureF,Dew PointF,Humidity,Sea Level PressureIn,VisibilityMPH,Wind Direction,Wind SpeedMPH,Gust SpeedMPH,PrecipitationIn,Events,Conditions,WindDirDegrees,DateUTC
12:15 AM,32.0,26.6,80,30.07,10.0,WNW,4.6,-,N/A,,Clear,300,2012-12-28 05:15:00
12:35 AM,32.0,26.6,80,30.07,-9999.0,WNW,3.5,-,N/A,,Clear,290,2012-12-28 05:35:00
12:55 AM,32.0,26.6,80,30.08,10.0,WSW,3.5,-,N/A,,Clear,250,2012-12-28 05:55:00
1:15 AM,30.2,24.8,80,30.08,10.0,Calm,Calm,-,N/A,,Clear,0,2012-12-28 06:15:00
1:35 AM,30.2,26.6,86,30.09,10.0,Calm,Calm,-,N/A,,Clear,0,2012-12-28 06:35:00
1:55 AM,30.2,26.6,86,30.09,10.0,Calm,Calm,-,N/A,,Clear,0,2012-12-28 06:55:00
2:15 AM,30.2,26.6,86,30.09,10.0,Calm,Calm,-,N/A,,Clear,0,2012-12-28 07:15:00
2:35 AM,30.2,26.6,86,30.10,-9999.0,Calm,Calm,-,N/A,,Unknown,0,2012-12-28 07:35:00
2:55 AM,30.2,26.6,86,30.10,10.0,West,3.5,-,N/A,,Clear,280,2012-12-28 07:55:00
3:15 AM,30.2,24.8,80,30.10,10.0,WNW,4.6,-,N/A,,Clear,290,2012-12-28 08:15:00
3:35 AM,30.2,24.8,80,30.10,10.0,West,4.6,-,N/A,,Clear,280,2012-12-28 08:35:00
3:55 AM,28.4,24.8,86,30.10,-9999.0,Calm,Calm,-,N/A,,Unknown,0,2012-12-28 08:55:00
4:15 AM,30.2,26.6,86,30.11,10.0,Calm,Calm,-,N/A,,Clear,0,2012-12-28 09:15:00
4:35 AM,30.2,26.6,86,30.12,10.0,Calm,Calm,-,N/A,,Clear,0,2012-12-28 09:35:00
4:55 AM,26.6,24.8,93,30.12,10.0,Calm,Calm,-,N/A,,Clear,0,2012-12-28 09:55:00
5:15 AM,28.4,26.6,93,30.12,10.0,Calm,Calm,-,N/A,,Clear,0,2012-12-28 10:15:00
5:35 AM,26.6,24.8,93,30.12,10.0,Calm,Calm,-,N/A,,Clear,0,2012-12-28 10:35:00
5:55 AM,26.6,26.6,100,30.12,10.0,Calm,Calm,-,N/A,,Clear,0,2012-12-28 10:55:00
6:15 AM,28.4,24.8,86,30.13,10.0,Calm,Calm,-,N/A,,Clear,0,2012-12-28 11:15:00
6:35 AM,28.4,26.6,93,30.14,-9999.0,Calm,Calm,-,N/A,,Unknown,0,2012-12-28 11:35:00
6:55 AM,26.6,24.8,93,30.15,10.0,Calm,Calm,-,N/A,,Clear,0,2012-12-28 11:55:00
7:15 AM,26.6,26.6,100,30.15,10.0,Calm,Calm,-,N/A,,Clear,0,2012-12-28 12:15:00
7:35 AM,26.6,26.6,100,30.16,10.0,Calm,Calm,-,N/A,,Clear,0,2012-12-28 12:35:00
7:55 AM,28.4,26.6,93,30.17,10.0,Calm,Calm,-,N/A,,Clear,0,2012-12-28 12:55:00
8:15 AM,28.4,28.4,100,30.17,10.0,Calm,Calm,-,N/A,,Clear,0,2012-12-28 13:15:00
8:35 AM,30.2,28.4,93,30.18,10.0,Calm,Calm,-,N/A,,Clear,0,2012-12-28 13:35:00
9:15 AM,32.0,28.4,87,30.19,-9999.0,Calm,Calm,-,N/A,,Clear,0,2012-12-28 14:15:00
9:35 AM,33.8,28.4,81,30.19,10.0,Calm,Calm,-,N/A,,Clear,0,2012-12-28 14:35:00
9:55 AM,33.8,30.2,87,30.19,10.0,Calm,Calm,-,N/A,,Clear,0,2012-12-28 14:55:00
10:15 AM,35.6,28.4,75,30.20,10.0,Calm,Calm,-,N/A,,Clear,0,2012-12-28 15:15:00
10:55 AM,37.4,28.4,70,30.20,10.0,ESE,3.5,-,N/A,,Clear,120,2012-12-28 15:55:00
11:15 AM,39.2,28.4,65,30.20,10.0,Calm,Calm,-,N/A,,Clear,0,2012-12-28 16:15:00
11:35 AM,39.2,28.4,65,30.19,10.0,Calm,Calm,-,N/A,,Clear,0,2012-12-28 16:35:00
11:55 AM,39.2,28.4,65,30.18,10.0,Calm,Calm,-,N/A,,Clear,0,2012-12-28 16:55:00
12:15 PM,39.2,28.4,65,30.16,-9999.0,Calm,Calm,-,N/A,,Clear,0,2012-12-28 17:15:00
12:35 PM,41.0,28.4,61,30.16,10.0,South,3.5,-,N/A,,Clear,180,2012-12-28 17:35:00
12:55 PM,41.0,30.2,65,30.15,10.0,SE,3.5,-,N/A,,Clear,140,2012-12-28 17:55:00
1:15 PM,41.0,30.2,65,30.14,10.0,SSE,5.8,-,N/A,,Scattered Clouds,150,2012-12-28 18:15:00
1:35 PM,41.0,28.4,61,30.13,10.0,South,5.8,-,N/A,,Mostly Cloudy,170,2012-12-28 18:35:00
1:55 PM,42.8,28.4,57,30.12,10.0,SSW,5.8,-,N/A,,Scattered Clouds,210,2012-12-28 18:55:00
2:15 PM,42.8,28.4,57,30.12,-9999.0,SSE,4.6,-,N/A,,Clear,160,2012-12-28 19:15:00
2:35 PM,42.8,28.4,57,30.12,10.0,SSE,3.5,-,N/A,,Clear,150,2012-12-28 19:35:00
2:55 PM,42.8,30.2,61,30.11,10.0,SSE,4.6,-,N/A,,Clear,150,2012-12-28 19:55:00
3:15 PM,42.8,30.2,61,30.12,10.0,Calm,Calm,-,N/A,,Clear,0,2012-12-28 20:15:00
3:35 PM,41.0,28.4,61,30.12,10.0,SW,4.6,-,N/A,,Clear,230,2012-12-28 20:35:00
3:55 PM,41.0,28.4,61,30.12,10.0,SSW,3.5,-,N/A,,Clear,200,2012-12-28 20:55:00
4:15 PM,41.0,30.2,65,30.11,-9999.0,SW,3.5,-,N/A,,Clear,220,2012-12-28 21:15:00
4:35 PM,41.0,30.2,65,30.11,10.0,Calm,Calm,-,N/A,,Clear,0,2012-12-28 21:35:00
4:55 PM,41.0,30.2,65,30.10,10.0,Calm,Calm,-,N/A,,Clear,0,2012-12-28 21:55:00
5:15 PM,39.2,30.2,70,30.09,10.0,Calm,Calm,-,N/A,,Clear,0,2012-12-28 22:15:00
5:35 PM,35.6,30.2,81,30.09,10.0,Calm,Calm,-,N/A,,Clear,0,2012-12-28 22:35:00
5:55 PM,33.8,30.2,87,30.08,10.0,Calm,Calm,-,N/A,,Clear,0,2012-12-28 22:55:00
6:15 PM,33.8,32.0,93,30.09,10.0,Calm,Calm,-,N/A,,Clear,0,2012-12-28 23:15:00
6:35 PM,33.8,30.2,87,30.07,10.0,ESE,4.6,-,N/A,,Clear,120,2012-12-28 23:35:00
6:55 PM,33.8,30.2,87,30.09,10.0,Calm,Calm,-,N/A,,Clear,0,2012-12-28 23:55:00
7:15 PM,32.0,30.2,93,30.10,10.0,Calm,Calm,-,N/A,,Clear,0,2012-12-29 00:15:00
7:35 PM,32.0,30.2,93,30.10,10.0,Calm,Calm,-,N/A,,Clear,0,2012-12-29 00:35:00
7:55 PM,32.0,30.2,93,30.10,-9999.0,Calm,Calm,-,N/A,,Unknown,0,2012-12-29 00:55:00
8:15 PM,32.0,30.2,93,30.10,10.0,Calm,Calm,-,N/A,,Clear,0,2012-12-29 01:15:00
8:35 PM,32.0,30.2,93,30.12,10.0,Calm,Calm,-,N/A,,Clear,0,2012-12-29 01:35:00
8:55 PM,32.0,32.0,100,30.11,-9999.0,Calm,Calm,-,N/A,,Unknown,0,2012-12-29 01:55:00
9:15 PM,32.0,32.0,100,30.11,10.0,Calm,Calm,-,N/A,,Clear,0,2012-12-29 02:15:00
9:35 PM,32.0,32.0,100,30.12,10.0,Calm,Calm,-,N/A,,Clear,0,2012-12-29 02:35:00
9:55 PM,32.0,32.0,100,30.09,10.0,Calm,Calm,-,N/A,,Clear,0,2012-12-29 02:55:00
10:15 PM,32.0,32.0,100,30.10,10.0,Calm,Calm,-,N/A,,Clear,0,2012-12-29 03:15:00
10:35 PM,32.0,32.0,100,30.09,10.0,Calm,Calm,-,N/A,,Clear,0,2012-12-29 03:35:00
10:55 PM,32.0,32.0,100,30.08,10.0,Calm,Calm,-,N/A,,Clear,0,2012-12-29 03:55:00
11:15 PM,32.0,32.0,100,30.08,10.0,Calm,Calm,-,N/A,,Mostly Cloudy,0,2012-12-29 04:15:00
11:35 PM,32.0,32.0,100,30.07,10.0,Calm,Calm,-,N/A,,Overcast,0,2012-12-29 04:35:00
11:55 PM,33.8,32.0,93,30.06,10.0,Calm,Calm,-,N/A,,Overcast,0,2012-12-29 04:55:00